Weather History for Jackson, KY

Change the Weather History Date:

Tuesday, January 21, 2014

  Actual Average Record
Temperature  
Mean Temperature 28 °F 35 °F  
Max Temperature 38 °F 43 °F 65 °F (1999)
Min Temperature 17 °F 27 °F -18 °F (1985)
Degree Days  
Heating Degree Days 37 30  
Month to date heating degree days 678 630  
Since 1 July heating degree days 2323 2264  
Cooling Degree Days 0 0  
Month to date cooling degree days 0 0  
Year to date cooling degree days 0 0  
Moisture  
Dew Point 18 °F    
Average Humidity 78    
Maximum Humidity 92    
Minimum Humidity 64    
Precipitation  
Precipitation 0.34 in 0.12 in 1.52 in (2012)
Month to date precipitation 2.89 2.42  
Year to date precipitation 2.89 2.42  
Snow  
Snow 4.50 in 0.20 in - ()
Month to date snowfall 10.2 4.6  
Since 1 July snowfall 14.5 10.1  
Snow Depth 1.00 in    
Sea Level Pressure  
Sea Level Pressure 29.86 in    
Wind  
Wind Speed 7 mph (NNW)    
Max Wind Speed 15 mph    
Max Gust Speed 23 mph    
Visibility 3 miles    
Events Fog , Snow    
T = Trace of Precipitation, MM = Missing Value Source: NWS Daily Summary

Daily Weather History Graph

Daily Weather History Graph

Search for Another Location

Airport:

Trip Planner

Search our weather history database for the weather conditions in past years. The results will help you decide how hot, cold, wet, or windy it might be!

Date:

Astronomy

Jan. 21, 2014 Rise Set
Actual Time 7:44 AM EST 5:45 PM EST
Civil Twilight 7:16 AM EST 6:13 PM EST
Nautical Twilight 6:44 AM EST 6:45 PM EST
Astronomical Twilight 6:13 AM EST 7:16 PM EST
Moon 11:09 PM EST 10:20 AM EST
Length of Visible Light 10h 57m
Length of Day
10h 00m
Waning Gibbous, 75% of the Moon is Illuminated
Jan 21
Waning Gibbous
Jan 24
Last Quarter
Jan 30
New
Feb 6
First Quarter
Feb 14
Full

Hourly Weather History & Observations

Time (EST) Temp. Windchill Dew Point Humidity Pressure Visibility Wind Dir Wind Speed Gust Speed Precip Events Conditions
12:53 AM 36.0 °F 32.1 °F 27.0 °F 70% 29.79 in 10.0 mi Variable 4.6 mph - N/A   Scattered Clouds
1:53 AM 34.0 °F 28.8 °F 26.1 °F 73% 29.75 in 10.0 mi NE 5.8 mph - N/A   Overcast
2:53 AM 34.0 °F 31.0 °F 26.1 °F 73% 29.74 in 10.0 mi Variable 3.5 mph - N/A   Overcast
3:18 AM 33.1 °F 26.9 °F 27.0 °F 78% 29.74 in 1.8 mi NNE 6.9 mph - 0.00 in Snow Light Snow
3:25 AM 32.0 °F 26.4 °F 27.0 °F 82% 29.75 in 1.0 mi Variable 5.8 mph - 0.00 in Snow Light Snow
3:32 AM 30.9 °F 25.2 °F 28.0 °F 89% 29.74 in 0.8 mi NE 5.8 mph - 0.00 in Snow Light Snow
3:53 AM 30.9 °F 26.2 °F 28.0 °F 89% 29.75 in 0.8 mi NE 4.6 mph - 0.01 in Snow Light Snow
4:10 AM 30.9 °F 26.2 °F 28.0 °F 89% 29.74 in 0.5 mi NE 4.6 mph - 0.02 in Fog , Snow Snow
4:23 AM 30.0 °F - 28.0 °F 92% 29.74 in 0.5 mi Calm Calm - 0.03 in Fog , Snow Snow
4:53 AM 30.0 °F 25.2 °F 28.0 °F 92% 29.73 in 0.5 mi Variable 4.6 mph - 0.06 in Fog , Snow Snow
5:00 AM 30.0 °F 25.2 °F 28.0 °F 92% 29.72 in 1.0 mi NE 4.6 mph - 0.01 in Snow Light Snow
5:13 AM 30.0 °F 25.2 °F 28.0 °F 92% 29.70 in 1.2 mi NE 4.6 mph - 0.01 in Snow Light Snow
5:26 AM 30.0 °F 25.2 °F 28.0 °F 92% 29.69 in 2.0 mi Variable 4.6 mph - 0.01 in Snow Light Snow
5:37 AM 30.0 °F 24.1 °F 28.0 °F 92% 29.68 in 4.0 mi ENE 5.8 mph - 0.01 in   Overcast
5:53 AM 30.0 °F 24.1 °F 28.0 °F 92% 29.71 in 5.0 mi NE 5.8 mph - 0.01 in   Overcast
6:53 AM 30.0 °F 26.5 °F 28.0 °F 92% 29.72 in 6.0 mi Variable 3.5 mph - N/A   Overcast
7:53 AM 30.0 °F - 28.0 °F 92% 29.71 in 4.0 mi Calm Calm - 0.00 in Snow Light Snow
8:53 AM 30.9 °F - 28.0 °F 89% 29.71 in 3.0 mi Calm Calm - 0.00 in   Overcast
9:05 AM 30.0 °F 25.2 °F 28.0 °F 92% 29.71 in 1.8 mi NNW 4.6 mph - 0.00 in Snow Light Snow
9:10 AM 30.0 °F 26.5 °F 28.0 °F 92% 29.71 in 0.8 mi Variable 3.5 mph - 0.01 in Snow Light Snow
9:53 AM 30.0 °F 25.2 °F 28.0 °F 92% 29.75 in 0.2 mi Variable 4.6 mph - 0.08 in Fog , Snow Heavy Snow
10:22 AM 30.0 °F 23.2 °F 27.0 °F 88% 29.74 in 0.2 mi Variable 6.9 mph - 0.04 in Fog , Snow Snow
10:40 AM 30.0 °F 21.1 °F 27.0 °F 88% 29.75 in 1.0 mi North 10.4 mph 18.4 mph 0.04 in Snow Light Snow
10:53 AM 30.0 °F 25.2 °F 27.0 °F 88% 29.77 in 1.5 mi Variable 4.6 mph - 0.04 in Snow Light Snow
11:05 AM 30.0 °F 25.2 °F 26.1 °F 85% 29.75 in 1.8 mi Variable 4.6 mph - 0.00 in Snow Light Snow
11:10 AM 30.0 °F 23.2 °F 26.1 °F 85% 29.76 in 0.8 mi Variable 6.9 mph - 0.01 in Snow Light Snow
11:53 AM 28.9 °F 21.9 °F 26.1 °F 89% 29.80 in 0.2 mi Variable 6.9 mph - 0.03 in Fog , Snow Light Snow
12:02 PM 28.9 °F 21.9 °F 25.0 °F 85% 29.78 in 0.5 mi Variable 6.9 mph 17.3 mph 0.00 in Fog , Snow Light Snow
12:53 PM 25.0 °F 15.5 °F 21.0 °F 85% 29.83 in 0.2 mi NNW 9.2 mph 18.4 mph 0.05 in Fog , Snow Snow
1:44 PM 21.0 °F 9.9 °F 17.1 °F 85% 29.83 in 0.8 mi NW 10.4 mph 19.6 mph 0.04 in Snow Light Snow
1:53 PM 21.0 °F 9.9 °F 17.1 °F 85% 29.87 in 1.0 mi NNW 10.4 mph 20.7 mph 0.05 in Snow Light Snow
2:10 PM 21.0 °F 9.3 °F 16.0 °F 81% 29.84 in 0.8 mi NNW 11.5 mph 18.4 mph 0.00 in Snow Light Snow
2:16 PM 19.9 °F 7.3 °F 15.1 °F 81% 29.85 in 1.0 mi NNW 12.7 mph 18.4 mph 0.00 in Snow Light Snow
2:36 PM 19.9 °F 7.9 °F 15.1 °F 81% 29.86 in 1.0 mi NW 11.5 mph 20.7 mph 0.00 in Snow Light Snow
2:53 PM 19.9 °F 10.1 °F 14.0 °F 78% 29.91 in 1.0 mi NNW 8.1 mph - 0.00 in Snow Light Snow
3:03 PM 19.9 °F 8.6 °F 14.0 °F 78% 29.88 in 0.8 mi NNW 10.4 mph 18.4 mph 0.00 in Snow Light Snow
3:31 PM 18.0 °F 4.8 °F 12.0 °F 78% 29.90 in 1.2 mi NW 12.7 mph 16.1 mph 0.01 in Snow Light Snow
3:50 PM 17.6 °F 5.0 °F 12.2 °F 79% 29.91 in 0.8 mi NW 11.5 mph 19.6 mph 0.01 in Snow Light Snow
3:53 PM 17.1 °F 4.3 °F 12.0 °F 81% 29.96 in 0.8 mi NW 11.5 mph 19.6 mph 0.01 in Snow Light Snow
4:45 PM 16.0 °F 5.3 °F 10.0 °F 77% 29.96 in 0.5 mi NNW 8.1 mph 19.6 mph 0.01 in Snow Snow
4:53 PM 16.0 °F 4.4 °F 10.9 °F 81% 30.01 in 0.5 mi NNW 9.2 mph - 0.01 in Snow Snow
5:12 PM 15.1 °F 4.2 °F 10.9 °F 84% 29.97 in 0.5 mi NW 8.1 mph - 0.00 in Fog , Snow Snow
5:25 PM 15.1 °F 4.2 °F 10.0 °F 80% 29.98 in 0.8 mi NW 8.1 mph - 0.00 in Snow Light Snow
5:32 PM 15.1 °F 2.5 °F 10.0 °F 80% 29.98 in 1.2 mi NNW 10.4 mph - 0.00 in Snow Light Snow
5:50 PM 15.8 °F 2.1 °F 8.6 °F 73% 29.99 in 2.0 mi NNW 12.7 mph 20.7 mph 0.01 in Snow Light Snow
5:53 PM 15.1 °F 0.5 °F 9.0 °F 77% 30.04 in 2.5 mi NNW 13.8 mph 20.7 mph 0.01 in Snow Light Snow
5:56 PM 15.1 °F 3.3 °F 8.1 °F 74% 29.99 in 3.0 mi NNW 9.2 mph 20.7 mph 0.00 in Snow Light Snow
6:53 PM 14.0 °F 2.9 °F 7.0 °F 74% 30.08 in 4.0 mi NW 8.1 mph 18.4 mph 0.00 in Snow Light Snow
7:18 PM 12.9 °F 0.7 °F 7.0 °F 77% 30.04 in 2.5 mi NNW 9.2 mph 24.2 mph 0.00 in Snow Light Snow
7:22 PM 12.9 °F -2.2 °F 6.1 °F 74% 30.04 in 3.0 mi NW 13.8 mph 20.7 mph 0.00 in Snow Light Snow
7:29 PM 12.9 °F 1.6 °F 6.1 °F 74% 30.04 in 4.0 mi NNW 8.1 mph 20.7 mph 0.00 in Snow Light Snow
7:53 PM 12.9 °F 1.6 °F 3.9 °F 67% 30.09 in 5.0 mi North 8.1 mph 24.2 mph 0.00 in Snow Light Snow
8:21 PM 12.0 °F 1.5 °F 3.9 °F 70% 30.05 in 7.0 mi Variable 6.9 mph - 0.00 in Snow Light Snow
8:34 PM 12.0 °F 0.5 °F 3.0 °F 67% 30.05 in 9.0 mi North 8.1 mph 19.6 mph 0.00 in Snow Light Snow
8:53 PM 12.0 °F 0.5 °F 3.0 °F 67% 30.11 in 9.0 mi NNW 8.1 mph - 0.00 in Snow Light Snow
9:53 PM 10.0 °F -1.9 °F 1.9 °F 70% 30.12 in 10.0 mi NNW 8.1 mph - 0.00 in   Overcast
10:53 PM 9.0 °F 0.6 °F 1.0 °F 70% 30.12 in 10.0 mi Variable 4.6 mph - N/A   Overcast
11:53 PM 8.1 °F -3.2 °F 1.0 °F 73% 30.14 in 8.0 mi NW 6.9 mph - 0.00 in Snow Light Snow